Regional Weather Roundup
Issued by NWS

Home | Current Version | Previous Version | Text Only | Print | Product List | Glossary On
Versions: 1 2 3 4 5 6 7 8 9 10 11 12 13 14 15 16 17 18 19 20 21 22 23 24 25 26 27 28 29 30 31 32 33 34 35 36 37 38 39 40 41 42 43 44 45 46 47 48 49 50
000
ASUS44 KJAN 020903
RWRMS

MISSISSIPPI HOURLY WEATHER ROUNDUP
NATIONAL WEATHER SERVICE JACKSON MS
400 AM CDT MON MAY 02 2016

NOTE: "FAIR: INDICATES FEW OR NO CLOUDS BELOW 12,000 FEET WITH NO
SIGNIFICANT WEATHER AND/OR OBSTRUCTIONS TO VISIBILITY.

MSZ001>002-007>008-010>013-018>021-025>028-034>036-021000-
NORTHWEST MISSISSIPPI

CITY           SKY/WX    TMP DP  RH WIND       PRES   REMARKS
BATESVILLE     PTSUNNY   67  66  96 CALM      29.96S
CLEVELAND      FAIR      70  70 100 S8        29.92S
GREENWOOD      CLOUDY    68  64  87 SE6       29.94F
GREENVILLE     CLOUDY    69  66  90 S7        29.93S
OLIVE BRANCH   CLOUDY    64  64 100 CALM      29.98R
OXFORD         MOCLDY    66  64  94 S6        29.97S
TUNICA         LGT RAIN  63  59  88 N10       29.97S
WINONA         CLOUDY    65  65 100 CALM      29.96R FOG
$$

MSZ003>006-009-014>017-022>024-029>033-037>039-021000-
NORTHEAST MISSISSIPPI

CITY           SKY/WX    TMP DP  RH WIND       PRES   REMARKS
COLUMBUS AFB   CLOUDY    68  68 100 S2        29.96S
CORINTH        CLOUDY    68  66  94 S5        29.96R FOG
GOLDN TRIANGLE CLOUDY    70  64  83 S3        29.96R
STARKVILLE     CLOUDY    66  64  94 CALM      29.96R FOG
TUPELO         CLOUDY    68  65  90 S3        29.96S
$$

MSZ040-058-021000-
CENTRAL MISSISSIPPI

CITY           SKY/WX    TMP DP  RH WIND       PRES   REMARKS
JACKSON INTL   CLOUDY    64  62  93 CALM      29.96R
JACKSON HAWKNS PTCLDY    64  62  93 CALM      29.96R
MADISON        FAIR      63  61  94 CALM      29.96S
MERIDIAN KEY   FOG       67  67 100 CALM      29.96S VSB 1/2
MERIDIAN NAS   CLOUDY    68  66  93 CALM      29.97R FOG
VICKSBURG TVR  CLEAR     68  65  90 CALM      29.95F
VICKSBURG VKS  SUNNY     64  64 100 CALM      29.95S
$$

MSZ059>079-021000-
SOUTH MISSISSIPPI

CITY           SKY/WX    TMP DP  RH WIND       PRES   REMARKS
BROOKHAVEN     FAIR     N/A N/A N/A CALM      29.97R HAZE
COLUMBIA       FAIR      61  59  94 CALM      29.98S
HATTIESBURG    CLOUDY    64  62  93 CALM      29.96S
MCCOMB         CLEAR     62  62 100 CALM      29.95S
NATCHEZ        MOCLDY    64  61  88 CALM      29.96R
PINE BELT      CLOUDY    63  59  88 CALM      29.96S VSB 1/4
$$

MSZ080>082-021000-
COASTAL MISSISSIPPI

CITY           SKY/WX    TMP DP  RH WIND       PRES   REMARKS
BILOXI         NOT AVBL
PASCAGOULA     FOG       68  67  96 CALM      29.94F VSB 1
GULFPORT       PTCLDY    67  65  93 NW5       29.93F
$$




USA.gov is the U.S. government's official web portal to all federal, state and local government web resources and services.